Tiempo Historia de Rochelle, IL

Change the Weather History Date:

Viernes, Marzo 9, 2012

  Actual Average (KRFD) Record (KRFD)
Temperature  
Temperatura media 32 ° F 34 ° F  
Temperatura máxima 38 ° F 44 ° F 68 ° F (1977)
Temperatura mínima 27 ° F 25 ° F -2 ° F (1984)
Degree Days  
Grados día de calefacción 32 31  
Month to date heating degree days 292  
Since 1 July heating degree days 5294  
Cooling Degree Days 0 0  
Month to date cooling degree days 0  
Year to date cooling degree days 0  
Moisture  
Punto de rocío 14 ° F    
Average Humidity 48    
Maximum Humidity 87    
Minimum Humidity 30    
Precipitación  
Precipitación 0.00 pul 0.06 pul 1.00 pul (1946)
Month to date precipitation 0.58  
Year to date precipitation 3.36  
Nieve  
Nieve 0.00 pul 0.20 pul 9.50 pul (1946)
Month to date snowfall 1.9  
Since 1 July snowfall 32.9  
Grosos de nieve -    
Presión al nivel del mar  
Presión al nivel del mar 30.45 pul    
Viento  
Velocidad del viento 13 mph (NO)    
Velocidad máxima del viento 22 mph    
Max Gust Speed 25 mph    
Visibilidad 10 Millas    
Eventos      
T = Trace of Precipitation, MM = Missing Value Source: NWS Daily Summary

Daily Weather History Graph

Daily Weather History Graph

Search for Another Location

Airport:

Trip Planner

Search our weather history database for the weather conditions in past years. The results will help you decide how hot, cold, wet, or windy it might be!

Date:

Astronomía

Mar. 09, 2012 Salida Puesta
Hora real 6:17 AM CST 5:56 PM CST
Crepúsculo civil 5:49 AM CST 6:24 PM CST
Crepúsculo náutico 5:17 AM CST 6:56 PM CST
Crepúsculo astronómico 4:44 AM CST 7:29 PM CST
Luna 7:59 PM CST (3/9) 6:33 AM CST (3/9)
Horas de luz 12h 34m
Horas de luz
11h 39m
Luna llena, 97% of the Moon is Illuminated
Mar 9
Luna llena
Mar 14
Cuarto menguante
Mar 22
Nueva
Mar 30
Cuarto creciente
Abr 6
Luna llena

Hourly Weather History & Observations

Hora (CST) Temp. Vientos helados Punto de rocío Humedad Presión Visibilidad Wind Dir Velocidad del viento Velocidad de ráfagas Precip Eventos Condiciones
12:15 AM 31.5 ° F 22.9 ° F 27.9 ° F 87% 30.22 pul 10.0 mi OSO 10.4 mph - N/A   Despejado
12:35 AM 31.1 ° F 24.5 ° F 27.7 ° F 87% 30.23 pul 10.0 mi Oeste 6.9 mph - N/A   Despejado
12:55 AM 34.7 ° F 24.7 ° F 28.0 ° F 77% 30.24 pul 10.0 mi Oeste 16.1 mph - N/A   Nubes dispersas
1:15 AM 34.7 ° F 24.7 ° F 28.2 ° F 77% 30.26 pul 10.0 mi Oeste 16.1 mph 21.9 mph N/A   Muy nublado
1:35 AM 34.5 ° F 24.1 ° F 27.7 ° F 76% 30.27 pul 10.0 mi ONO 17.3 mph 23.0 mph N/A   Nubes dispersas
1:55 AM 34.3 ° F 25.0 ° F 25.5 ° F 70% 30.28 pul 10.0 mi ONO 13.8 mph 19.6 mph N/A   Despejado
2:15 AM 33.8 ° F 22.8 ° F 20.8 ° F 59% 30.28 pul 10.0 mi NO 18.4 mph 25.3 mph N/A   Despejado
2:35 AM 33.3 ° F 22.1 ° F 19.8 ° F 58% 30.30 pul 10.0 mi ONO 18.4 mph 25.3 mph N/A   Despejado
2:55 AM 32.2 ° F 20.4 ° F 19.6 ° F 60% 30.31 pul 10.0 mi ONO 19.6 mph - N/A   Despejado
3:15 AM 32.0 ° F 21.2 ° F 18.9 ° F 58% 30.32 pul 10.0 mi ONO 16.1 mph 23.0 mph N/A   Despejado
3:35 AM 31.1 ° F 20.9 ° F 17.1 ° F 56% 30.33 pul 10.0 mi ONO 13.8 mph 18.4 mph N/A   Despejado
3:55 AM 30.4 ° F 19.1 ° F 15.1 ° F 53% 30.34 pul 10.0 mi ONO 16.1 mph 20.7 mph N/A   Despejado
4:15 AM 29.8 ° F 18.9 ° F 14.0 ° F 52% 30.36 pul 10.0 mi ONO 15.0 mph 19.6 mph N/A   Despejado
4:35 AM 28.9 ° F 18.6 ° F 18.1 ° F 64% 30.37 pul 10.0 mi ONO 12.7 mph - N/A   Despejado
4:55 AM 28.8 ° F 18.4 ° F 16.3 ° F 60% 30.38 pul 10.0 mi ONO 12.7 mph - N/A   Despejado
5:15 AM 28.4 ° F 16.6 ° F 16.5 ° F 61% 30.39 pul 10.0 mi ONO 16.1 mph 20.7 mph N/A   Despejado
5:35 AM 28.4 ° F 17.5 ° F 13.3 ° F 53% 30.40 pul 10.0 mi NO 13.8 mph 20.7 mph N/A   Despejado
5:55 AM 27.9 ° F 17.3 ° F 13.5 ° F 55% 30.41 pul 10.0 mi ONO 12.7 mph 17.3 mph N/A   Despejado
6:15 AM 27.5 ° F 16.3 ° F 14.2 ° F 57% 30.43 pul 10.0 mi NO 13.8 mph 17.3 mph N/A   Despejado
6:35 AM 27.5 ° F 16.8 ° F 14.5 ° F 58% 30.44 pul 10.0 mi ONO 12.7 mph - N/A   Despejado
6:55 AM 27.9 ° F 16.8 ° F 13.5 ° F 55% 30.45 pul 10.0 mi NO 13.8 mph 20.7 mph N/A   Despejado
7:15 AM 28.2 ° F 17.7 ° F 13.5 ° F 54% 30.46 pul 10.0 mi ONO 12.7 mph - N/A   Despejado
7:35 AM 28.4 ° F 17.0 ° F 12.2 ° F 51% 30.48 pul 10.0 mi NO 15.0 mph 20.7 mph N/A   Despejado
7:55 AM 29.3 ° F 19.6 ° F 12.6 ° F 50% 30.49 pul 10.0 mi NO 11.5 mph 19.6 mph N/A   Despejado
8:15 AM 29.7 ° F 18.2 ° F 10.6 ° F 45% 30.49 pul 10.0 mi NO 16.1 mph - N/A   Despejado
8:35 AM 30.2 ° F 18.5 ° F 11.1 ° F 45% 30.50 pul 10.0 mi NO 17.3 mph 23.0 mph N/A   Despejado
8:55 AM 30.6 ° F 19.0 ° F 10.8 ° F 44% 30.51 pul 10.0 mi NNO 17.3 mph 24.2 mph N/A   Despejado
9:15 AM 30.6 ° F 19.4 ° F 10.2 ° F 43% 30.52 pul 10.0 mi NNO 16.1 mph 21.9 mph N/A   Despejado
9:35 AM 31.3 ° F 18.5 ° F 10.6 ° F 42% 30.53 pul 10.0 mi NNO 21.9 mph - N/A   Despejado
9:55 AM 31.1 ° F 20.1 ° F 9.9 ° F 41% 30.53 pul 10.0 mi NNO 16.1 mph 21.9 mph N/A   Despejado
10:15 AM 31.8 ° F 21.0 ° F 10.4 ° F 41% 30.54 pul 10.0 mi NNO 16.1 mph 21.9 mph N/A   Despejado
10:35 AM 32.0 ° F 22.1 ° F 11.3 ° F 42% 30.54 pul 10.0 mi NNO 13.8 mph 23.0 mph N/A   Despejado
10:55 AM 32.4 ° F 22.5 ° F 9.9 ° F 39% 30.54 pul 10.0 mi Norte 13.8 mph 19.6 mph N/A   Despejado
11:15 AM 33.6 ° F 24.1 ° F 11.1 ° F 39% 30.54 pul 10.0 mi NNO 13.8 mph 19.6 mph N/A   Despejado
11:35 AM 34.3 ° F 25.0 ° F 11.5 ° F 39% 30.54 pul 10.0 mi NNO 13.8 mph 18.4 mph N/A   Despejado
11:55 AM 34.7 ° F 25.5 ° F 10.0 ° F 36% 30.54 pul 10.0 mi NNO 13.8 mph - N/A   Despejado
12:15 PM 35.4 ° F 26.0 ° F 10.6 ° F 36% 30.54 pul 10.0 mi NNO 15.0 mph 18.4 mph N/A   Despejado
12:35 PM 35.8 ° F 25.7 ° F 12.0 ° F 38% 30.54 pul 10.0 mi Norte 17.3 mph - N/A   Despejado
12:55 PM 36.5 ° F 28.2 ° F 10.0 ° F 34% 30.53 pul 10.0 mi NNO 12.7 mph - N/A   Despejado
1:15 PM 36.7 ° F 29.9 ° F 12.2 ° F 37% 30.53 pul 10.0 mi NNO 9.2 mph 13.8 mph N/A   Despejado
1:35 PM 37.4 ° F 28.9 ° F 11.1 ° F 34% 30.52 pul 10.0 mi NNO 13.8 mph 17.3 mph N/A   Despejado
1:55 PM 38.3 ° F 30.5 ° F 10.0 ° F 31% 30.52 pul 10.0 mi NO 12.7 mph 19.6 mph N/A   Despejado
2:15 PM 37.8 ° F 30.2 ° F 10.4 ° F 32% 30.52 pul 10.0 mi NNO 11.5 mph 18.4 mph N/A   Despejado
2:35 PM 38.5 ° F 32.7 ° F 10.9 ° F 32% 30.51 pul 10.0 mi NNO 8.1 mph - N/A   Despejado
2:55 PM 38.3 ° F 30.9 ° F 10.2 ° F 31% 30.51 pul 10.0 mi NNO 11.5 mph 16.1 mph N/A   Despejado
3:15 PM 38.5 ° F 32.1 ° F 9.3 ° F 30% 30.51 pul 10.0 mi NNO 9.2 mph - N/A   Despejado
3:35 PM 38.1 ° F 34.6 ° F 9.9 ° F 31% 30.51 pul 10.0 mi NNO 4.6 mph - N/A   Despejado
3:55 PM 38.3 ° F 33.2 ° F 10.4 ° F 32% 30.51 pul 10.0 mi ONO 6.9 mph - N/A   Despejado
4:15 PM 38.3 ° F 33.2 ° F 10.2 ° F 31% 30.50 pul 10.0 mi NNO 6.9 mph - N/A   Despejado
4:35 PM 37.6 ° F 34.0 ° F 10.0 ° F 32% 30.50 pul 10.0 mi Norte 4.6 mph - N/A   Despejado
4:55 PM 37.4 ° F 32.8 ° F 10.2 ° F 33% 30.49 pul 10.0 mi Norte 5.8 mph - N/A   Despejado
5:15 PM 36.7 ° F 32.0 ° F 9.5 ° F 32% 30.49 pul 10.0 mi Norte 5.8 mph - N/A   Despejado
5:35 PM 35.8 ° F 31.9 ° F 12.6 ° F 38% 30.49 pul 10.0 mi Norte 4.6 mph - N/A   Despejado
5:55 PM 34.7 ° F 31.8 ° F 14.0 ° F 43% 30.50 pul 10.0 mi Norte 3.5 mph - N/A   Despejado
6:15 PM 33.8 ° F 30.8 ° F 14.4 ° F 45% 30.50 pul 10.0 mi NNE 3.5 mph - N/A   Despejado
6:35 PM 33.3 ° F 30.2 ° F 12.7 ° F 43% 30.51 pul 10.0 mi NE 3.5 mph - N/A   Despejado
6:55 PM 32.9 ° F - 13.3 ° F 44% 30.51 pul 10.0 mi Sin viento Sin viento - N/A   Despejado
7:15 PM 33.6 ° F - 12.0 ° F 41% 30.51 pul 10.0 mi Sin viento Sin viento - N/A   Despejado
7:35 PM 30.0 ° F 26.5 ° F 22.3 ° F 73% 30.51 pul 10.0 mi Este 3.5 mph - N/A   Despejado
7:55 PM 28.6 ° F 23.5 ° F 21.2 ° F 74% 30.51 pul 10.0 mi Este 4.6 mph - N/A   Despejado
8:15 PM 28.9 ° F 21.9 ° F 22.1 ° F 76% 30.51 pul 10.0 mi Este 6.9 mph - N/A   Despejado
8:35 PM 28.8 ° F 21.7 ° F 21.4 ° F 74% 30.50 pul 10.0 mi ESE 6.9 mph - N/A   Despejado
8:55 PM 28.9 ° F 21.9 ° F 21.4 ° F 73% 30.49 pul 10.0 mi ESE 6.9 mph - N/A   Despejado
9:15 PM 28.0 ° F 21.7 ° F 21.9 ° F 78% 30.49 pul 10.0 mi SE 5.8 mph - N/A   Despejado
9:35 PM 28.2 ° F 22.0 ° F 22.1 ° F 78% 30.49 pul 10.0 mi SE 5.8 mph - N/A   Despejado
9:55 PM 27.3 ° F 20.9 ° F 22.1 ° F 81% 30.49 pul 10.0 mi SE 5.8 mph - N/A   Despejado
10:15 PM 27.7 ° F 19.6 ° F 21.7 ° F 78% 30.48 pul 10.0 mi SE 8.1 mph - N/A   Despejado
10:35 PM 28.2 ° F 20.2 ° F 21.2 ° F 75% 30.48 pul 10.0 mi SE 8.1 mph - N/A   Despejado
10:55 PM 29.1 ° F 20.0 ° F 19.8 ° F 68% 30.48 pul 10.0 mi SE 10.4 mph - N/A   Despejado
11:15 PM 28.9 ° F 20.4 ° F 20.5 ° F 71% 30.48 pul 10.0 mi SSE 9.2 mph - N/A   Despejado
11:35 PM 28.8 ° F 19.0 ° F 20.7 ° F 72% 30.48 pul 10.0 mi SSE 11.5 mph - N/A   Despejado
11:55 PM 28.4 ° F 18.5 ° F 21.2 ° F 74% 30.47 pul 10.0 mi SSE 11.5 mph - N/A   Despejado